[Iaude] MPEC R08: 2023 JH5 = 2010 MP122

mpec at marsden.cfa.harvard.edu mpec at marsden.cfa.harvard.edu
Mon Sep 4 22:34:25 EDT 2023


M.P.E.C. 2023-R08                             Issued 2023 September 5, 02:30 UT

     The Minor Planet Electronic Circulars contain information on unusual
         minor planets, routine data on comets and natural satellites,
         and occasional editorial announcements.  They are published
    on behalf of Division F of the International Astronomical Union by the
          Minor Planet Center, Smithsonian Astrophysical Observatory,
                          Cambridge, MA 02138, U.S.A.
			  
             Prepared using the Tamkin Foundation Computer Network

                              MPC at CFA.HARVARD.EDU
            URL https://www.minorplanetcenter.net/    ISSN 1523-6714

                             2023 JH5 = 2010 MP122                              

                           Revision to MPEC 2023-K50

Orbital elements:
2023 JH5 = 2010 MP122                                    Earth MOID = 0.1253 AU
Id. F. Manca
Epoch 2023 Sept. 13.0 TT = JDT 2460200.5                Veres                   
M 346.42509              (2000.0)            P               Q                  
n   0.37435333     Peri.  119.37264     +0.83752771     +0.14004086             
a   1.9066966      Node   237.80277     -0.16839951     +0.98570245             
e   0.5070085      Incl.   38.61777     +0.51979701     +0.09369755             
P   2.63           H   19.60          G   0.15           U   1                  
Residuals in seconds of arc
100619 C51  0.4-  0.8+    230523 I52  0.4+  0.0     230612 I52  0.4+  0.0
100619 C51  0.9-  0.5-    230523 I52  0.4+  0.7-    230612 I52  0.1-  0.3+
100619 C51  0.2+  1.3-    230523 I52  0.6+  0.6-    230615 I52  0.1-  0.0
100619 C51  0.4-  0.8-    230525 I52  0.2-  0.6+    230615 I52  0.0   0.3-
100619 C51  0.6-  0.3-    230525 I52  0.3-  0.2+    230615 I52  0.0   0.1+
100619 C51  0.7+  0.1+    230525 I52  0.4-  0.1+    230615 F51  0.2-  0.0
100619 C51  1.9+  1.7-    230525 G96  0.0   0.2-    230615 F51  0.0   0.0
230511 G96  0.3+  1.3-    230525 G96  0.2+  0.5+    230615 F51  0.1-  0.0
230511 G96  0.1-  0.2+    230525 G96  0.1+  0.2-    230615 F51  0.2-  0.0
230512 F52  0.1-  0.2+    230527 F51  0.1-  0.1-    230619 F52  0.1+  0.1-
230512 F52  0.1-  0.2+    230527 F51  0.2-  0.1+    230619 F52  0.1-  0.1+
230512 F52  0.0   0.0     230527 F51  0.2-  0.0     230619 F52  0.2-  0.0
230512 F51  0.1-  0.0     230527 F51  0.3-  0.1+    230619 F52  0.0   0.1+
230512 F51  0.0   0.1+    230530 I52  0.0   0.1-    230622 F52  0.2-  0.0
230513 807  0.3-  0.1+    230530 I52  0.5-  0.2+    230622 F52  0.2-  0.1+
230513 807  0.2-  0.0     230530 I52  0.1-  0.2+    230622 F52  0.1-  0.1-
230513 807  0.2-  0.0     230530 I52  0.3+  0.3-    230624 G96  0.1-  0.0
230515 474  0.2-  0.7+    230605 I52  0.4-  0.1+    230624 G96  0.6+  0.4-
230515 474  0.0   0.6-    230605 I52  0.0   0.1-    230624 G96  0.1-  0.5-
230521 H36  0.9-  0.3-    230605 I52  0.1+  0.2+    230624 G96  0.5-  0.5+
230521 H36  0.0   0.5+    230607 F51  0.0   0.2+    230706 I52  0.5+  0.1+
230521 I52  0.0   0.1+    230607 F51  0.2-  0.0     230706 I52  0.4-  0.1-
230521 I52  0.0   0.2+    230607 F51  0.1-  0.1+    230706 I52  0.3-  0.1-
230521 I52  0.3-  0.2-    230607 F51  0.0   0.1+    230707 033  0.6-  0.7-
230521 H36  0.3-  0.3+    230612 I52  0.1-  0.1+    230707 033  0.6-  0.2-
230523 I52  0.5-  0.1-    230612 I52  0.3+  0.2-

Ephemeris:
2023 JH5                 a,e,i = 1.91, 0.51, 39                  q = 0.9400
Date    TT    R. A. (2000) Decl.     Delta      r    Elong.  Phase     V
2023 08 06    14 51 13.0 +19 13 49   0.9428  1.2864    82.1    51.4    21.9
...
2023 08 21    15 05 55.5 +21 41 43   0.9632  1.1815    73.4    55.2    21.9
...
2023 08 29    15 16 28.1 +22 51 31   0.9585  1.1291    69.9    57.2    21.8
...
2023 09 04    15 25 30.0 +23 42 19   0.9472  1.0922    67.8    58.8    21.8
2023 09 05    15 27 05.9 +23 50 43   0.9447  1.0863    67.5    59.0    21.8
2023 09 06    15 28 43.3 +23 59 06   0.9419  1.0805    67.2    59.3    21.8
...
2023 09 12    15 39 02.5 +24 49 17   0.9213  1.0473    65.6    61.1    21.7
...
2023 09 20    15 54 24.3 +25 56 21   0.8827  1.0085    64.2    63.8    21.6
...
2023 10 05    16 29 06.1 +28 01 15   0.7776  0.9570    63.7    69.6    21.4

M. P. C. Staff               (C) Copyright 2023 MPC           M.P.E.C. 2023-R08





More information about the Iaude mailing list